Location: Domicella
(40.8833°N, 14.5833°E)
Time: 14:54:00
(UTC+00:00)

CZ-4B R/B - Pass Details

Date: 15 May 2026
Orbit: 442 x 557 km, 97.8° (Epoch: 10 June)

Event Time Altitude Azimuth Distance (km) Brightness Sun altitude
Exits shadow 20:50:44 45° 277° (W) 632 3.3 -23.2°
Drops below altitude 10° 20:53:47 10° 335° (NNW) 1,611 6.3 -23.5°
Sets 20:55:55 0° 342° (NNW) 2,507 7.5 -23.7°
